ACA576 CYVR-KDEN

Flight info

Callsign ACA576
Flight time 2h 30m
Altitude 39000
Route SQURL DCT KS06I DCT DNJ DCT PIH DCT MJANE FLATI5
Aircraft A20N/M-SDE2E3FGHIRWXY/LB1

Departure

Time 2026-05-03 22:48
Airport Vancouver International Airport (CYVR)

Arrival

Time 2026-05-04 01:19
Airport Denver International Airport (KDEN)
Time Latitude Longitude Altitude Speed Heading
2026-05-03 22:09 49.19814 -123.17566 18 ft 0 kts 171°
2026-05-03 22:28 49.19829 -123.17568 18 ft 2 kts 183°
2026-05-03 22:29 49.19846 -123.17565 18 ft 2 kts 174°
2026-05-03 22:29 49.19862 -123.17561 19 ft 2 kts 221°
2026-05-03 22:29 49.19874 -123.17552 18 ft 0 kts 262°
2026-05-03 22:34 49.19873 -123.17559 18 ft 2 kts 264°
2026-05-03 22:34 49.19884 -123.17609 18 ft 9 kts 300°
2026-05-03 22:34 49.19925 -123.17712 19 ft 13 kts 290°
2026-05-03 22:34 49.19967 -123.17848 20 ft 15 kts 307°
2026-05-03 22:35 49.19992 -123.17977 19 ft 12 kts 276°
2026-05-03 22:35 49.20007 -123.18112 19 ft 14 kts 280°
2026-05-03 22:35 49.20025 -123.18269 19 ft 15 kts 280°
2026-05-03 22:35 49.20042 -123.18416 19 ft 12 kts 281°
2026-05-03 22:36 49.20001 -123.18520 19 ft 14 kts 197°
2026-05-03 22:36 49.19922 -123.18543 19 ft 7 kts 189°
2026-05-03 22:36 49.19859 -123.18558 19 ft 11 kts 189°
2026-05-03 22:36 49.19774 -123.18588 19 ft 14 kts 208°
2026-05-03 22:37 49.19752 -123.18712 18 ft 11 kts 278°
2026-05-03 22:37 49.19768 -123.18837 18 ft 13 kts 279°
2026-05-03 22:37 49.19781 -123.18957 18 ft 8 kts 280°
2026-05-03 22:37 49.19790 -123.19031 20 ft 8 kts 280°
2026-05-03 22:38 49.19771 -123.19115 18 ft 10 kts 208°
2026-05-03 22:38 49.19697 -123.19145 17 ft 11 kts 192°
2026-05-03 22:38 49.19629 -123.19165 17 ft 11 kts 190°
2026-05-03 22:38 49.19549 -123.19153 19 ft 13 kts 154°
2026-05-03 22:39 49.19485 -123.19079 17 ft 12 kts 141°
2026-05-03 22:39 49.19417 -123.18998 16 ft 13 kts 142°
2026-05-03 22:39 49.19335 -123.18899 18 ft 16 kts 141°
2026-05-03 22:39 49.19250 -123.18799 16 ft 15 kts 143°
2026-05-03 22:40 49.19166 -123.18698 18 ft 16 kts 141°
2026-05-03 22:40 49.19075 -123.18585 18 ft 17 kts 142°
2026-05-03 22:40 49.18996 -123.18493 17 ft 14 kts 141°
2026-05-03 22:40 49.18945 -123.18355 18 ft 17 kts 101°
2026-05-03 22:41 49.18928 -123.18182 16 ft 18 kts 100°
2026-05-03 22:41 49.18904 -123.17997 16 ft 18 kts 99°
2026-05-03 22:41 49.18881 -123.17802 16 ft 19 kts 102°
2026-05-03 22:41 49.18859 -123.17610 16 ft 17 kts 99°
2026-05-03 22:42 49.18840 -123.17447 17 ft 15 kts 100°
2026-05-03 22:42 49.18820 -123.17271 18 ft 18 kts 99°
2026-05-03 22:42 49.18799 -123.17083 17 ft 16 kts 100°
2026-05-03 22:42 49.18778 -123.16899 16 ft 19 kts 99°
2026-05-03 22:43 49.18762 -123.16737 17 ft 13 kts 99°
2026-05-03 22:43 49.18746 -123.16590 16 ft 15 kts 100°
2026-05-03 22:43 49.18726 -123.16435 17 ft 15 kts 102°
2026-05-03 22:43 49.18692 -123.16287 16 ft 13 kts 127°
2026-05-03 22:44 49.18649 -123.16206 16 ft 9 kts 129°
2026-05-03 22:44 49.18631 -123.16115 16 ft 2 kts 101°
2026-05-03 22:44 49.18630 -123.16102 16 ft 4 kts 100°
2026-05-03 22:44 49.18623 -123.16070 16 ft 0 kts 116°
2026-05-03 22:45 49.18588 -123.16041 16 ft 10 kts 171°
2026-05-03 22:45 49.18520 -123.16052 17 ft 8 kts 191°
2026-05-03 22:46 49.18481 -123.16085 17 ft 7 kts 240°
2026-05-03 22:46 49.18479 -123.16118 17 ft 0 kts 274°
2026-05-03 22:47 49.18479 -123.16121 17 ft 2 kts 274°
2026-05-03 22:47 49.18522 -123.16513 15 ft 82 kts 280°
2026-05-03 22:48 49.18666 -123.17788 21 ft 155 kts 280°
2026-05-03 22:48 49.18866 -123.19582 436 ft 180 kts 280°
2026-05-03 22:48 49.19053 -123.21431 1541 ft 174 kts 274°
2026-05-03 22:48 49.19025 -123.23229 2650 ft 165 kts 269°
2026-05-03 22:49 49.18980 -123.25020 3368 ft 170 kts 266°
2026-05-03 22:49 49.18892 -123.26837 4025 ft 174 kts 265°
2026-05-03 22:49 49.18776 -123.28789 4429 ft 193 kts 265°
2026-05-03 22:49 49.18623 -123.30873 4920 ft 198 kts 263°
2026-05-03 22:50 49.18438 -123.33076 5239 ft 223 kts 263°
2026-05-03 22:50 49.18396 -123.35555 5728 ft 244 kts 272°
2026-05-03 22:50 49.18423 -123.38242 6298 ft 263 kts 269°
2026-05-03 22:50 49.18213 -123.41125 6883 ft 281 kts 256°
2026-05-03 22:51 49.17322 -123.43782 7727 ft 286 kts 229°
2026-05-03 22:51 49.15738 -123.45601 8596 ft 289 kts 203°
2026-05-03 22:51 49.13770 -123.46289 9428 ft 294 kts 186°
2026-05-03 22:51 49.11713 -123.46596 10246 ft 300 kts 185°
2026-05-03 22:52 49.09563 -123.46799 10642 ft 322 kts 175°
2026-05-03 22:52 49.07367 -123.45907 10956 ft 343 kts 153°
2026-05-03 22:52 49.05459 -123.43667 11586 ft 351 kts 129°
2026-05-03 22:52 49.04237 -123.40487 12450 ft 351 kts 108°
2026-05-03 22:53 49.03725 -123.36848 13285 ft 353 kts 96°
2026-05-03 22:53 49.03475 -123.33099 14085 ft 357 kts 94°
2026-05-03 22:53 49.03215 -123.29319 14842 ft 362 kts 95°
2026-05-03 22:53 49.02875 -123.25480 15555 ft 367 kts 97°
2026-05-03 22:54 49.02469 -123.21617 15885 ft 369 kts 98°
2026-05-03 22:54 49.02027 -123.17799 16232 ft 373 kts 98°
2026-05-03 22:54 49.01557 -123.13900 17020 ft 374 kts 99°
2026-05-03 22:54 49.01078 -123.09978 17735 ft 378 kts 98°
2026-05-03 22:55 49.00596 -123.06020 18417 ft 382 kts 98°
2026-05-03 22:55 49.00109 -123.02020 19074 ft 386 kts 99°
2026-05-03 22:55 48.99615 -122.97981 19720 ft 390 kts 99°
2026-05-03 22:55 48.99115 -122.93896 20329 ft 393 kts 98°
2026-05-03 22:56 48.98612 -122.89781 20913 ft 398 kts 98°
2026-05-03 22:56 48.98100 -122.85616 21499 ft 401 kts 99°
2026-05-03 22:56 48.97583 -122.81424 22080 ft 405 kts 99°
2026-05-03 22:56 48.97061 -122.77197 22636 ft 408 kts 99°
2026-05-03 22:57 48.96531 -122.72924 23167 ft 412 kts 99°
2026-05-03 22:57 48.95997 -122.68628 23721 ft 416 kts 99°
2026-05-03 22:57 48.95453 -122.64272 24236 ft 419 kts 99°
2026-05-03 22:57 48.94741 -122.59944 24751 ft 424 kts 108°
2026-05-03 22:58 48.93517 -122.55897 25246 ft 429 kts 119°
2026-05-03 22:58 48.91764 -122.52202 25716 ft 434 kts 130°
2026-05-03 22:58 48.89728 -122.48794 26170 ft 437 kts 131°
2026-05-03 22:58 48.87675 -122.45361 26621 ft 440 kts 130°
2026-05-03 22:59 48.85606 -122.41887 27049 ft 444 kts 130°
2026-05-03 22:59 48.83536 -122.38403 27489 ft 446 kts 130°
2026-05-03 22:59 48.81449 -122.34889 27878 ft 449 kts 130°
2026-05-03 22:59 48.79352 -122.31359 28297 ft 451 kts 130°
2026-05-03 23:00 48.77247 -122.27824 28660 ft 453 kts 130°
2026-05-03 23:00 48.75127 -122.24270 29013 ft 456 kts 130°
2026-05-03 23:00 48.73016 -122.20737 29355 ft 458 kts 130°
2026-05-03 23:00 48.70869 -122.17150 29724 ft 460 kts 130°
2026-05-03 23:01 48.68710 -122.13550 30036 ft 462 kts 130°
2026-05-03 23:01 48.66550 -122.09951 30367 ft 464 kts 130°
2026-05-03 23:01 48.64369 -122.06323 30686 ft 467 kts 130°
2026-05-03 23:01 48.62175 -122.02680 30996 ft 469 kts 130°
2026-05-03 23:02 48.59978 -121.99038 31377 ft 469 kts 130°
2026-05-03 23:02 48.57777 -121.95393 31796 ft 468 kts 130°
2026-05-03 23:02 48.55578 -121.91754 32171 ft 468 kts 130°
2026-05-03 23:02 48.53388 -121.88138 32575 ft 467 kts 130°
2026-05-03 23:03 48.51195 -121.84522 32952 ft 466 kts 130°
2026-05-03 23:03 48.49012 -121.80930 33349 ft 465 kts 129°
2026-05-03 23:03 48.46828 -121.77336 33738 ft 463 kts 129°
2026-05-03 23:03 48.44675 -121.73800 34092 ft 463 kts 129°
2026-05-03 23:04 48.42475 -121.70190 34427 ft 462 kts 129°
2026-05-03 23:04 48.40331 -121.66679 34701 ft 462 kts 129°
2026-05-03 23:04 48.38161 -121.63127 35015 ft 461 kts 129°
2026-05-03 23:04 48.35982 -121.59568 35284 ft 461 kts 129°
2026-05-03 23:05 48.33804 -121.56012 35559 ft 461 kts 129°
2026-05-03 23:05 48.31633 -121.52473 35801 ft 461 kts 129°
2026-05-03 23:05 48.29459 -121.48933 36046 ft 461 kts 129°
2026-05-03 23:05 48.27279 -121.45392 36294 ft 461 kts 129°
2026-05-03 23:06 48.25106 -121.41866 36545 ft 461 kts 129°
2026-05-03 23:06 48.22924 -121.38332 36775 ft 461 kts 129°
2026-05-03 23:06 48.20749 -121.34813 37078 ft 458 kts 129°
2026-05-03 23:06 48.18592 -121.31325 37403 ft 455 kts 129°
2026-05-03 23:07 48.16443 -121.27860 37673 ft 452 kts 129°
2026-05-03 23:07 48.14332 -121.24456 37886 ft 452 kts 129°
2026-05-03 23:07 48.12188 -121.21005 38024 ft 453 kts 129°
2026-05-03 23:07 48.10043 -121.17552 38188 ft 453 kts 129°
2026-05-03 23:08 48.07885 -121.14086 38337 ft 454 kts 129°
2026-05-03 23:08 48.05737 -121.10639 38490 ft 454 kts 129°
2026-05-03 23:08 48.03581 -121.07188 38630 ft 453 kts 129°
2026-05-03 23:08 48.01428 -121.03746 38793 ft 453 kts 129°
2026-05-03 23:09 47.99271 -121.00302 38891 ft 454 kts 129°
2026-05-03 23:09 47.94968 -120.93436 38969 ft 450 kts 129°
2026-05-03 23:10 47.90691 -120.86629 38970 ft 451 kts 129°
2026-05-03 23:10 47.86390 -120.79806 38971 ft 451 kts 130°
2026-05-03 23:11 47.82105 -120.73032 38969 ft 452 kts 130°
2026-05-03 23:11 47.77790 -120.66221 38970 ft 452 kts 130°
2026-05-03 23:12 47.73476 -120.59430 38946 ft 452 kts 130°
2026-05-03 23:12 47.69144 -120.52627 38942 ft 452 kts 130°
2026-05-03 23:13 47.64813 -120.45845 38916 ft 452 kts 130°
2026-05-03 23:13 47.60479 -120.39081 38911 ft 452 kts 130°
2026-05-03 23:14 47.56172 -120.32374 38906 ft 452 kts 130°
2026-05-03 23:14 47.51834 -120.25631 38904 ft 452 kts 130°
2026-05-03 23:15 47.47492 -120.18906 38904 ft 452 kts 130°
2026-05-03 23:15 47.43145 -120.12187 38903 ft 452 kts 130°
2026-05-03 23:16 47.38799 -120.05487 38903 ft 452 kts 130°
2026-05-03 23:16 47.34449 -119.98801 38906 ft 452 kts 130°
2026-05-03 23:17 47.30089 -119.92111 38914 ft 451 kts 130°
2026-05-03 23:17 47.25771 -119.85499 38914 ft 451 kts 131°
2026-05-03 23:18 47.21421 -119.78859 38912 ft 450 kts 131°
2026-05-03 23:18 47.17067 -119.72234 38916 ft 450 kts 131°
2026-05-03 23:19 47.12713 -119.65626 38913 ft 449 kts 131°
2026-05-03 23:19 47.08361 -119.59033 38924 ft 449 kts 131°
2026-05-03 23:20 47.04006 -119.52452 38931 ft 449 kts 131°
2026-05-03 23:20 46.99654 -119.45892 38914 ft 448 kts 131°
2026-05-03 23:21 46.95335 -119.39397 38913 ft 448 kts 131°
2026-05-03 23:21 46.90957 -119.32834 38917 ft 447 kts 131°
2026-05-03 23:22 46.84453 -119.23106 38907 ft 447 kts 131°
2026-05-03 23:22 46.80106 -119.16630 38905 ft 446 kts 131°
2026-05-03 23:23 46.75755 -119.10163 38903 ft 446 kts 131°
2026-05-03 23:23 46.71408 -119.03715 38906 ft 445 kts 132°
2026-05-03 23:24 46.67066 -118.97295 38899 ft 445 kts 132°
2026-05-03 23:24 46.62727 -118.90889 38899 ft 444 kts 132°
2026-05-03 23:25 46.58409 -118.84530 38899 ft 444 kts 132°
2026-05-03 23:25 46.54070 -118.78157 38901 ft 443 kts 132°
2026-05-03 23:26 46.49724 -118.71790 38901 ft 443 kts 132°
2026-05-03 23:26 46.45381 -118.65440 38899 ft 443 kts 132°
2026-05-03 23:27 46.41037 -118.59106 38905 ft 443 kts 132°
2026-05-03 23:27 46.36691 -118.52782 38917 ft 442 kts 133°
2026-05-03 23:28 46.32350 -118.46485 38914 ft 442 kts 133°
2026-05-03 23:28 46.28000 -118.40189 38926 ft 442 kts 133°
2026-05-03 23:29 46.23674 -118.33939 38928 ft 442 kts 133°
2026-05-03 23:29 46.19327 -118.27673 38927 ft 442 kts 133°
2026-05-03 23:30 46.14973 -118.21415 38917 ft 441 kts 133°
2026-05-03 23:30 46.10627 -118.15180 38919 ft 441 kts 133°
2026-05-03 23:31 46.07015 -118.10006 38914 ft 441 kts 133°
2026-05-03 23:31 46.02668 -118.03787 38928 ft 440 kts 133°
2026-05-03 23:32 45.98333 -117.97567 38923 ft 439 kts 132°
2026-05-03 23:32 45.94112 -117.91220 38937 ft 438 kts 131°
2026-05-03 23:33 45.89932 -117.84913 38929 ft 438 kts 131°
2026-05-03 23:33 45.85716 -117.78601 38925 ft 438 kts 132°
2026-05-03 23:34 45.81497 -117.72307 38934 ft 438 kts 132°
2026-05-03 23:34 45.77268 -117.66020 38935 ft 438 kts 132°
2026-05-03 23:35 45.73037 -117.59745 38935 ft 438 kts 132°
2026-05-03 23:35 45.68808 -117.53484 38945 ft 438 kts 132°
2026-05-03 23:36 45.64565 -117.47220 38943 ft 438 kts 132°
2026-05-03 23:36 45.60322 -117.40968 38955 ft 438 kts 132°
2026-05-03 23:37 45.56068 -117.34711 38970 ft 439 kts 132°
2026-05-03 23:37 45.51808 -117.28464 38978 ft 439 kts 132°
2026-05-03 23:38 45.47539 -117.22213 38988 ft 440 kts 133°
2026-05-03 23:38 45.43261 -117.15970 38994 ft 441 kts 133°
2026-05-03 23:39 45.38972 -117.09726 39002 ft 442 kts 133°
2026-05-03 23:39 45.34699 -117.03516 39013 ft 443 kts 133°
2026-05-03 23:40 45.30389 -116.97266 38999 ft 442 kts 133°
2026-05-03 23:40 45.26082 -116.91037 39004 ft 441 kts 133°
2026-05-03 23:41 45.21775 -116.84821 38998 ft 442 kts 133°
2026-05-03 23:41 45.17464 -116.78614 39003 ft 442 kts 133°
2026-05-03 23:42 45.13144 -116.72408 39002 ft 442 kts 133°
2026-05-03 23:42 45.08850 -116.66250 38992 ft 442 kts 133°
2026-05-03 23:43 45.04503 -116.60036 38981 ft 441 kts 133°
2026-05-03 23:43 45.00216 -116.53922 38992 ft 440 kts 133°
2026-05-03 23:44 44.95892 -116.47770 38989 ft 440 kts 133°
2026-05-03 23:44 44.91575 -116.41637 38988 ft 440 kts 134°
2026-05-03 23:45 44.87285 -116.35556 38985 ft 439 kts 134°
2026-05-03 23:45 44.82970 -116.29457 38984 ft 440 kts 134°
2026-05-03 23:46 44.78647 -116.23356 38993 ft 439 kts 134°
2026-05-03 23:46 44.74737 -116.16773 39000 ft 439 kts 124°
2026-05-03 23:47 44.71220 -116.09740 39001 ft 439 kts 124°
2026-05-03 23:47 44.67692 -116.02722 38996 ft 439 kts 124°
2026-05-03 23:48 44.64157 -115.95716 38996 ft 440 kts 125°
2026-05-03 23:48 44.60629 -115.88752 38993 ft 440 kts 125°
2026-05-03 23:49 44.57067 -115.81740 38997 ft 441 kts 125°
2026-05-03 23:49 44.53503 -115.74736 38996 ft 441 kts 125°
2026-05-03 23:50 44.50533 -115.68917 39008 ft 442 kts 125°
2026-05-03 23:50 44.46345 -115.60730 39009 ft 442 kts 125°
2026-05-03 23:51 44.42780 -115.53780 39007 ft 442 kts 125°
2026-05-03 23:51 44.39183 -115.46783 39006 ft 443 kts 125°
2026-05-03 23:52 44.35584 -115.39799 39015 ft 443 kts 125°
2026-05-03 23:52 44.31980 -115.32821 39017 ft 443 kts 126°
2026-05-03 23:53 44.28368 -115.25845 39026 ft 443 kts 126°
2026-05-03 23:53 44.24758 -115.18887 39029 ft 442 kts 126°
2026-05-03 23:54 44.21161 -115.11979 39027 ft 443 kts 126°
2026-05-03 23:54 44.17538 -115.05033 39030 ft 443 kts 126°
2026-05-03 23:55 44.13913 -114.98100 39030 ft 443 kts 126°
2026-05-03 23:55 44.10284 -114.91174 39029 ft 443 kts 126°
2026-05-03 23:56 44.06649 -114.84257 39023 ft 443 kts 126°
2026-05-03 23:56 44.03005 -114.77337 39015 ft 444 kts 126°
2026-05-03 23:57 43.99340 -114.70390 39013 ft 445 kts 126°
2026-05-03 23:57 43.95674 -114.63456 39008 ft 446 kts 127°
2026-05-03 23:58 43.91996 -114.56522 39007 ft 446 kts 127°
2026-05-03 23:58 43.88328 -114.49624 39005 ft 447 kts 127°
2026-05-03 23:59 43.84621 -114.42671 39005 ft 448 kts 127°
2026-05-03 23:59 43.80911 -114.35724 39011 ft 449 kts 127°
2026-05-04 00:00 43.77192 -114.28776 39010 ft 449 kts 127°
2026-05-04 00:00 43.73474 -114.21849 38990 ft 447 kts 127°
2026-05-04 00:01 43.69762 -114.14949 39002 ft 447 kts 127°
2026-05-04 00:01 43.66044 -114.08054 39000 ft 447 kts 127°
2026-05-04 00:02 43.62319 -114.01162 38998 ft 447 kts 127°
2026-05-04 00:02 43.58596 -113.94287 38999 ft 447 kts 127°
2026-05-04 00:03 43.54889 -113.87460 39001 ft 448 kts 127°
2026-05-04 00:03 43.51149 -113.80586 38989 ft 448 kts 127°
2026-05-04 00:04 43.47398 -113.73716 38991 ft 449 kts 127°
2026-05-04 00:04 43.43642 -113.66844 38987 ft 450 kts 128°
2026-05-04 00:05 43.39867 -113.59956 38987 ft 450 kts 128°
2026-05-04 00:05 43.36100 -113.53099 38977 ft 450 kts 128°
2026-05-04 00:06 43.32315 -113.46225 38979 ft 451 kts 128°
2026-05-04 00:06 43.28523 -113.39358 38967 ft 451 kts 128°
2026-05-04 00:07 43.24747 -113.32535 38971 ft 451 kts 128°
2026-05-04 00:07 43.20951 -113.25690 38958 ft 451 kts 128°
2026-05-04 00:08 43.17145 -113.18839 38956 ft 451 kts 128°
2026-05-04 00:08 43.13338 -113.12006 38952 ft 451 kts 128°
2026-05-04 00:09 43.09529 -113.05182 38954 ft 451 kts 129°
2026-05-04 00:09 43.05716 -112.98372 38949 ft 451 kts 129°
2026-05-04 00:10 43.01914 -112.91595 38943 ft 451 kts 129°
2026-05-04 00:10 42.98089 -112.84790 38937 ft 451 kts 129°
2026-05-04 00:11 42.94256 -112.77990 38944 ft 452 kts 129°
2026-05-04 00:11 42.90426 -112.71199 38940 ft 452 kts 129°
2026-05-04 00:12 42.86837 -112.64151 38932 ft 454 kts 120°
2026-05-04 00:12 42.84164 -112.56341 38915 ft 456 kts 114°
2026-05-04 00:13 42.81626 -112.48414 38922 ft 456 kts 115°
2026-05-04 00:13 42.79075 -112.40483 38919 ft 457 kts 115°
2026-05-04 00:14 42.76531 -112.32609 38921 ft 457 kts 115°
2026-05-04 00:14 42.73958 -112.24674 38920 ft 458 kts 115°
2026-05-04 00:15 42.71373 -112.16731 38926 ft 459 kts 115°
2026-05-04 00:15 42.68796 -112.08843 38943 ft 459 kts 115°
2026-05-04 00:16 42.66196 -112.00900 38956 ft 459 kts 115°
2026-05-04 00:16 42.63585 -111.92953 38962 ft 460 kts 115°
2026-05-04 00:17 42.60970 -111.85012 38972 ft 461 kts 116°
2026-05-04 00:17 42.58786 -111.78401 38979 ft 462 kts 116°
2026-05-04 00:18 42.56147 -111.70436 38990 ft 462 kts 116°
2026-05-04 00:18 42.53504 -111.62477 38997 ft 464 kts 116°
2026-05-04 00:19 42.50855 -111.54518 38996 ft 463 kts 116°
2026-05-04 00:19 42.48198 -111.46572 38993 ft 462 kts 116°
2026-05-04 00:20 42.45537 -111.38642 38993 ft 463 kts 116°
2026-05-04 00:20 42.42888 -111.30752 39013 ft 463 kts 116°
2026-05-04 00:21 42.40216 -111.22816 39010 ft 463 kts 116°
2026-05-04 00:21 42.37544 -111.14913 38990 ft 462 kts 116°
2026-05-04 00:22 42.34870 -111.07017 38995 ft 461 kts 116°
2026-05-04 00:22 42.32193 -110.99142 39013 ft 464 kts 116°
2026-05-04 00:23 42.29478 -110.91185 39023 ft 466 kts 116°
2026-05-04 00:23 42.26755 -110.83220 39023 ft 467 kts 116°
2026-05-04 00:24 42.24023 -110.75248 39034 ft 468 kts 116°
2026-05-04 00:24 42.21280 -110.67275 39048 ft 469 kts 116°
2026-05-04 00:25 42.18538 -110.59332 39055 ft 470 kts 116°
2026-05-04 00:25 42.15772 -110.51330 39055 ft 471 kts 116°
2026-05-04 00:26 42.12997 -110.43330 39052 ft 472 kts 117°
2026-05-04 00:26 42.10211 -110.35321 39060 ft 472 kts 117°
2026-05-04 00:27 42.07417 -110.27313 39055 ft 473 kts 117°
2026-05-04 00:27 42.04612 -110.19298 39057 ft 473 kts 117°
2026-05-04 00:28 42.01816 -110.11329 39056 ft 474 kts 117°
2026-05-04 00:28 41.98999 -110.03326 39058 ft 474 kts 117°
2026-05-04 00:29 41.96171 -109.95311 39062 ft 475 kts 117°
2026-05-04 00:29 41.93337 -109.87303 39056 ft 475 kts 117°
2026-05-04 00:30 41.90495 -109.79291 39045 ft 473 kts 117°
2026-05-04 00:30 41.87660 -109.71319 39036 ft 474 kts 117°
2026-05-04 00:31 41.84805 -109.63321 39007 ft 474 kts 117°
2026-05-04 00:31 41.81955 -109.55357 39002 ft 475 kts 117°
2026-05-04 00:32 41.79086 -109.47368 39012 ft 475 kts 117°
2026-05-04 00:32 41.76228 -109.39432 39021 ft 476 kts 118°
2026-05-04 00:33 41.71908 -109.27474 39003 ft 476 kts 118°
2026-05-04 00:34 41.69017 -109.19497 39010 ft 477 kts 118°
2026-05-04 00:34 41.66117 -109.11515 39007 ft 477 kts 118°
2026-05-04 00:35 41.63203 -109.03521 39000 ft 478 kts 118°
2026-05-04 00:35 41.60296 -108.95571 39011 ft 479 kts 118°
2026-05-04 00:36 41.57367 -108.87579 39014 ft 479 kts 118°
2026-05-04 00:36 41.54427 -108.79584 39015 ft 480 kts 118°
2026-05-04 00:37 41.51477 -108.71579 39026 ft 481 kts 118°
2026-05-04 00:37 41.48515 -108.63570 39021 ft 481 kts 118°
2026-05-04 00:38 41.45546 -108.55559 39025 ft 482 kts 118°
2026-05-04 00:38 41.42568 -108.47542 39027 ft 483 kts 118°
2026-05-04 00:39 41.39585 -108.39524 39036 ft 483 kts 118°
2026-05-04 00:39 41.36858 -108.31337 39031 ft 485 kts 109°
2026-05-04 00:40 41.34807 -108.22847 39028 ft 484 kts 109°
2026-05-04 00:40 41.32746 -108.14327 39028 ft 484 kts 109°
2026-05-04 00:41 41.30660 -108.05807 39029 ft 484 kts 109°
2026-05-04 00:41 41.28565 -107.97299 39029 ft 484 kts 109°
2026-05-04 00:42 41.26451 -107.88757 39043 ft 488 kts 109°
2026-05-04 00:42 41.24333 -107.80215 39036 ft 485 kts 110°
2026-05-04 00:43 41.22208 -107.71688 39036 ft 486 kts 110°
2026-05-04 00:43 41.20091 -107.63218 39045 ft 486 kts 110°
2026-05-04 00:44 41.17954 -107.54697 39045 ft 487 kts 110°
2026-05-04 00:44 41.15807 -107.46169 39046 ft 487 kts 110°
2026-05-04 00:45 41.13656 -107.37657 39045 ft 486 kts 110°
2026-05-04 00:45 41.11504 -107.29163 39037 ft 486 kts 110°
2026-05-04 00:46 41.09343 -107.20663 39037 ft 486 kts 110°
2026-05-04 00:46 41.07171 -107.12154 39038 ft 486 kts 110°
2026-05-04 00:47 41.05011 -107.03717 39036 ft 486 kts 110°
2026-05-04 00:47 41.02833 -106.95239 39035 ft 486 kts 110°
2026-05-04 00:48 41.00644 -106.86749 39035 ft 487 kts 110°
2026-05-04 00:48 40.98450 -106.78274 39052 ft 487 kts 110°
2026-05-04 00:49 40.96248 -106.69790 39048 ft 487 kts 110°
2026-05-04 00:49 40.95140 -106.65537 38858 ft 490 kts 110°
2026-05-04 00:49 40.94025 -106.61269 38409 ft 491 kts 110°
2026-05-04 00:49 40.92911 -106.57009 37775 ft 492 kts 110°
2026-05-04 00:50 40.91802 -106.52771 36999 ft 495 kts 110°
2026-05-04 00:50 40.90671 -106.48456 36151 ft 498 kts 110°
2026-05-04 00:50 40.89532 -106.44120 35280 ft 501 kts 110°
2026-05-04 00:50 40.88380 -106.39748 34311 ft 506 kts 110°
2026-05-04 00:51 40.87221 -106.35349 33555 ft 506 kts 110°
2026-05-04 00:51 40.86065 -106.30965 32704 ft 507 kts 110°
2026-05-04 00:51 40.84901 -106.26577 31904 ft 506 kts 111°
2026-05-04 00:51 40.83508 -106.22311 31218 ft 503 kts 116°
2026-05-04 00:52 40.82032 -106.18186 30874 ft 492 kts 116°
2026-05-04 00:52 40.80593 -106.14121 30376 ft 485 kts 116°
2026-05-04 00:52 40.79178 -106.10118 29809 ft 480 kts 116°
2026-05-04 00:52 40.77769 -106.06144 29252 ft 475 kts 116°
2026-05-04 00:53 40.76368 -106.02205 28693 ft 471 kts 116°
2026-05-04 00:53 40.74981 -105.98310 28132 ft 467 kts 116°
2026-05-04 00:53 40.73607 -105.94455 27595 ft 462 kts 116°
2026-05-04 00:53 40.72245 -105.90637 27049 ft 457 kts 116°
2026-05-04 00:54 40.70902 -105.86886 26715 ft 447 kts 116°
2026-05-04 00:54 40.69592 -105.83236 26399 ft 446 kts 116°
2026-05-04 00:54 40.68261 -105.79537 26072 ft 446 kts 116°
2026-05-04 00:54 40.66935 -105.75852 25730 ft 444 kts 116°
2026-05-04 00:55 40.65615 -105.72187 25400 ft 441 kts 116°
2026-05-04 00:55 40.64307 -105.68557 25073 ft 437 kts 116°
2026-05-04 00:55 40.63007 -105.64957 24666 ft 434 kts 116°
2026-05-04 00:55 40.61713 -105.61378 24250 ft 432 kts 116°
2026-05-04 00:56 40.60427 -105.57830 23839 ft 426 kts 117°
2026-05-04 00:56 40.59154 -105.54316 23434 ft 424 kts 116°
2026-05-04 00:56 40.57883 -105.50809 23012 ft 425 kts 116°
2026-05-04 00:56 40.56617 -105.47319 22609 ft 420 kts 116°
2026-05-04 00:57 40.55371 -105.43877 22407 ft 413 kts 117°
2026-05-04 00:57 40.54143 -105.40497 21889 ft 408 kts 116°
2026-05-04 00:57 40.52916 -105.37128 21378 ft 405 kts 116°
2026-05-04 00:57 40.51708 -105.33842 20963 ft 395 kts 117°
2026-05-04 00:58 40.50514 -105.30617 20718 ft 387 kts 116°
2026-05-04 00:58 40.49365 -105.27479 20507 ft 377 kts 116°
2026-05-04 00:58 40.48241 -105.24401 20093 ft 372 kts 116°
2026-05-04 00:58 40.47124 -105.21349 19618 ft 370 kts 117°
2026-05-04 00:59 40.45772 -105.18497 19151 ft 366 kts 131°
2026-05-04 00:59 40.43964 -105.16199 18770 ft 358 kts 147°
2026-05-04 00:59 40.41950 -105.14347 18612 ft 351 kts 148°
2026-05-04 00:59 40.39968 -105.12512 18440 ft 354 kts 147°
2026-05-04 01:00 40.37980 -105.10662 18274 ft 351 kts 147°
2026-05-04 01:00 40.35962 -105.08783 18109 ft 354 kts 147°
2026-05-04 01:00 40.33969 -105.06929 17885 ft 352 kts 148°
2026-05-04 01:00 40.31960 -105.05051 17544 ft 354 kts 148°
2026-05-04 01:01 40.29959 -105.03200 17200 ft 349 kts 147°
2026-05-04 01:01 40.27991 -105.01383 16867 ft 344 kts 147°
2026-05-04 01:01 40.26046 -104.99588 16534 ft 340 kts 147°
2026-05-04 01:01 40.24122 -104.97810 16208 ft 340 kts 147°
2026-05-04 01:02 40.22196 -104.96030 15878 ft 337 kts 147°
2026-05-04 01:02 40.20297 -104.94274 15699 ft 333 kts 147°
2026-05-04 01:02 40.18371 -104.92582 15574 ft 334 kts 153°
2026-05-04 01:02 40.16285 -104.91282 15453 ft 331 kts 160°
2026-05-04 01:03 40.14168 -104.90105 15334 ft 330 kts 160°
2026-05-04 01:03 40.12073 -104.88931 15208 ft 329 kts 160°
2026-05-04 01:03 40.09974 -104.87751 15088 ft 328 kts 160°
2026-05-04 01:03 40.07886 -104.86574 14966 ft 327 kts 160°
2026-05-04 01:04 40.05796 -104.85396 14845 ft 326 kts 160°
2026-05-04 01:04 40.03713 -104.84224 14721 ft 325 kts 159°
2026-05-04 01:04 40.01636 -104.83042 14491 ft 325 kts 159°
2026-05-04 01:04 40.00266 -104.82257 14335 ft 323 kts 159°
2026-05-04 01:05 39.98207 -104.81115 14105 ft 319 kts 163°
2026-05-04 01:05 39.96073 -104.80495 13843 ft 314 kts 178°
2026-05-04 01:05 39.93903 -104.80477 13469 ft 310 kts 184°
2026-05-04 01:05 39.91058 -104.80572 13000 ft 306 kts 184°
2026-05-04 01:06 39.89620 -104.80614 12756 ft 305 kts 184°
2026-05-04 01:06 39.87526 -104.80671 12419 ft 304 kts 184°
2026-05-04 01:06 39.85413 -104.80728 12066 ft 302 kts 183°
2026-05-04 01:06 39.83323 -104.80784 11696 ft 300 kts 183°
2026-05-04 01:07 39.81263 -104.80838 11526 ft 290 kts 183°
2026-05-04 01:07 39.79289 -104.80886 11416 ft 278 kts 183°
2026-05-04 01:07 39.77399 -104.80927 11314 ft 266 kts 183°
2026-05-04 01:07 39.75579 -104.80947 11139 ft 258 kts 183°
2026-05-04 01:08 39.73812 -104.80960 10995 ft 249 kts 183°
2026-05-04 01:08 39.72065 -104.80975 10971 ft 253 kts 183°
2026-05-04 01:08 39.70306 -104.80988 10969 ft 254 kts 181°
2026-05-04 01:08 39.68427 -104.80774 10971 ft 291 kts 174°
2026-05-04 01:09 39.66285 -104.80358 10972 ft 330 kts 173°
2026-05-04 01:09 39.63932 -104.79873 10970 ft 348 kts 173°
2026-05-04 01:09 39.61542 -104.79401 10976 ft 348 kts 173°
2026-05-04 01:09 39.59146 -104.78956 10980 ft 348 kts 174°
2026-05-04 01:10 39.56749 -104.78528 10987 ft 348 kts 174°
2026-05-04 01:10 39.54381 -104.78115 10986 ft 334 kts 174°
2026-05-04 01:10 39.52161 -104.77725 10984 ft 317 kts 174°
2026-05-04 01:10 39.50038 -104.77354 10985 ft 299 kts 174°
2026-05-04 01:11 39.48049 -104.76991 10981 ft 277 kts 170°
2026-05-04 01:11 39.46349 -104.76027 10983 ft 262 kts 142°
2026-05-04 01:11 39.45242 -104.74217 11003 ft 261 kts 113°
2026-05-04 01:11 39.44931 -104.71906 11007 ft 264 kts 84°
2026-05-04 01:12 39.45434 -104.69657 11008 ft 260 kts 61°
2026-05-04 01:12 39.46576 -104.67911 11017 ft 255 kts 31°
2026-05-04 01:12 39.48206 -104.67099 11018 ft 252 kts
2026-05-04 01:12 39.49946 -104.66875 11014 ft 251 kts
2026-05-04 01:13 39.51684 -104.66666 11013 ft 251 kts
2026-05-04 01:13 39.53417 -104.66381 11006 ft 251 kts
2026-05-04 01:13 39.55160 -104.66364 10909 ft 250 kts 356°
2026-05-04 01:13 39.56891 -104.66398 10700 ft 247 kts 358°
2026-05-04 01:14 39.58611 -104.66388 10377 ft 247 kts 359°
2026-05-04 01:14 39.60323 -104.66361 10047 ft 246 kts 360°
2026-05-04 01:14 39.62010 -104.66335 9712 ft 245 kts 360°
2026-05-04 01:14 39.63713 -104.66314 9385 ft 245 kts
2026-05-04 01:15 39.65410 -104.66291 9079 ft 243 kts
2026-05-04 01:15 39.67093 -104.66262 8763 ft 242 kts
2026-05-04 01:15 39.68767 -104.66241 8512 ft 236 kts
2026-05-04 01:15 39.70368 -104.66223 8420 ft 224 kts
2026-05-04 01:16 39.71848 -104.66207 8364 ft 203 kts
2026-05-04 01:16 39.73198 -104.66180 8221 ft 185 kts
2026-05-04 01:16 39.74398 -104.66158 8116 ft 159 kts 360°
2026-05-04 01:16 39.75451 -104.66150 7804 ft 149 kts 359°
2026-05-04 01:17 39.76494 -104.66155 7329 ft 151 kts 358°
2026-05-04 01:17 39.77551 -104.66143 6825 ft 152 kts 358°
2026-05-04 01:17 39.78593 -104.66109 6446 ft 146 kts 358°
2026-05-04 01:17 39.79587 -104.66094 6155 ft 138 kts 357°
2026-05-04 01:18 39.80515 -104.66082 5887 ft 129 kts 357°
2026-05-04 01:18 39.81353 -104.66065 5734 ft 115 kts 356°
2026-05-04 01:18 39.82252 -104.66068 5644 ft 135 kts 358°
2026-05-04 01:18 39.83167 -104.66051 5464 ft 126 kts 357°
2026-05-04 01:19 39.83975 -104.66048 5418 ft 95 kts
2026-05-04 01:19 39.84429 -104.66037 5422 ft 42 kts
2026-05-04 01:19 39.84681 -104.66047 5411 ft 30 kts 347°
2026-05-04 01:19 39.84801 -104.66089 5410 ft 15 kts 340°
2026-05-04 01:20 39.84904 -104.66155 5395 ft 16 kts 330°
2026-05-04 01:20 39.85009 -104.66227 5403 ft 18 kts 337°
2026-05-04 01:20 39.85122 -104.66248 5401 ft 15 kts
2026-05-04 01:20 39.85237 -104.66243 5389 ft 17 kts
2026-05-04 01:21 39.85358 -104.66240 5399 ft 18 kts 360°
2026-05-04 01:21 39.85474 -104.66238 5391 ft 14 kts
2026-05-04 01:21 39.85567 -104.66260 5397 ft 13 kts 316°
2026-05-04 01:21 39.85585 -104.66381 5394 ft 14 kts 270°
2026-05-04 01:22 39.85583 -104.66497 5392 ft 13 kts 269°
2026-05-04 01:22 39.85583 -104.66631 5388 ft 17 kts 269°
2026-05-04 01:22 39.85586 -104.66775 5384 ft 15 kts 272°
2026-05-04 01:22 39.85588 -104.66902 5383 ft 13 kts 270°
2026-05-04 01:23 39.85553 -104.67006 5383 ft 13 kts 216°
2026-05-04 01:23 39.85519 -104.67096 5383 ft 12 kts 267°
2026-05-04 01:23 39.85517 -104.67175 5383 ft 7 kts 257°
2026-05-04 01:23 39.85483 -104.67208 5384 ft 5 kts 197°
2026-05-04 01:24 39.85452 -104.67217 5385 ft 4 kts 192°
2026-05-04 01:24 39.85434 -104.67222 5386 ft 0 kts 191°
2026-05-04 01:24 39.85431 -104.67223 5386 ft 0 kts 191°